Location: *
(51.1248°S, 108.4023°W)
Time: 04:43:05
(UTC+00:00)

Cosmos 1937 Rocket - Visible Passes

Search period start: 17 October 2021 00:00
Search period end: 27 October 2021 00:00
Orbit: 747 x 779 km, 74.0° (Epoch: 16 October)

Date Brightness Start Highest point End Pass type
(mag) Time Alt. Az. Time Alt. Az. Time Alt. Az.
17 Oct 6.2 10:43:50 10° NE 10:47:12 17° E 10:50:34 10° SE visible
19 Oct 5.0 11:06:44 10° N 11:11:39 38° ENE 11:16:36 10° SE visible
20 Oct 5.7 10:29:12 10° NNE 10:33:24 24° E 10:37:39 10° SE visible
21 Oct 6.1 09:52:22 10° NE 09:55:17 15° E 09:58:13 10° ESE visible
22 Oct 4.3 10:52:48 10° N 10:58:00 54° ENE 11:03:15 10° SSE visible
23 Oct 5.1 10:14:55 10° NNE 10:19:41 34° ENE 10:24:29 10° SE visible
24 Oct 5.7 09:37:32 10° NE 09:41:28 21° E 09:45:27 10° SE visible
25 Oct 6.1 09:01:01 10° ENE 09:03:23 13° E 09:05:44 10° ESE visible
25 Oct 3.7 10:39:04 10° NNW 10:44:25 76° ENE 10:49:48 10° SSE visible
26 Oct 4.4 10:00:54 10° N 10:06:00 48° ENE 10:11:10 10° SSE visible
